Weather History for Three Rivers, MI

Change the Weather History Date:

Sunday, June 2, 2013

  Actual Average Record
Temperature  
Mean Temperature 56 °F -  
Max Temperature 64 °F 76 °F 90 °F (1988)
Min Temperature 47 °F 51 °F 35 °F (1956)
Degree Days  
Heating Degree Days 10    
Growing Degree Days 6 (Base 50)    
Moisture  
Dew Point 53 °F    
Average Humidity 84    
Maximum Humidity 97    
Minimum Humidity 69    
Precipitation  
Precipitation 0.00 in - - ()
Sea Level Pressure  
Sea Level Pressure 29.87 in    
Wind  
Wind Speed 9 mph (WNW)    
Max Wind Speed 16 mph    
Max Gust Speed 23 mph    
Visibility 10 miles    
Events Rain    
Averages and records for this station are not official NWS values.
T = Trace of Precipitation, MM = Missing Value Source: NWS Daily Summary

Daily Weather History Graph

Daily Weather History Graph

Search for Another Location

Airport:

Trip Planner

Search our weather history database for the weather conditions in past years. The results will help you decide how hot, cold, wet, or windy it might be!

Date:

Astronomy

Jun. 02, 2013 Rise Set
Actual Time 6:08 AM EDT 9:12 PM EDT
Civil Twilight 5:35 AM EDT 9:46 PM EDT
Nautical Twilight 4:52 AM EDT 10:29 PM EDT
Astronomical Twilight 4:01 AM EDT 11:20 PM EDT
Moon 2:40 AM EDT (6/2) 3:37 PM EDT (6/2)
Length of Visible Light 16h 10m
Length of Day
15h 03m
Waning Crescent, 31% of the Moon is Illuminated
Jun 2
Waning Crescent
Jun 8
New
Jun 16
First Quarter
Jun 23
Full
Jun 30
Last Quarter

Hourly Weather History & Observations

Time (EDT) Temp. Dew Point Humidity Pressure Visibility Wind Dir Wind Speed Gust Speed Precip Events Conditions
12:15 AM 64.8 °F 63.5 °F 96% 29.71 in 10.0 mi WNW 10.4 mph - N/A Rain Light Rain
12:34 AM 63.0 °F 61.2 °F 94% 29.71 in 10.0 mi WNW 4.6 mph - N/A   Overcast
12:54 AM 61.9 °F 60.4 °F 95% 29.71 in 10.0 mi SW 3.5 mph - N/A   Mostly Cloudy
1:15 AM 61.3 °F 60.3 °F 96% 29.71 in 10.0 mi SSW 3.5 mph - N/A   Overcast
1:34 AM 61.9 °F 61.0 °F 97% 29.71 in 10.0 mi WSW 3.5 mph - N/A   Overcast
1:54 AM 62.2 °F 61.5 °F 97% 29.71 in 10.0 mi SW 8.1 mph - N/A   Overcast
2:15 AM 62.1 °F 60.3 °F 94% 29.71 in 10.0 mi SW 10.4 mph - N/A   Scattered Clouds
2:34 AM 61.7 °F 59.9 °F 94% 29.71 in 10.0 mi SW 6.9 mph - N/A   Scattered Clouds
2:54 AM 61.7 °F 59.9 °F 94% 29.71 in 10.0 mi WSW 5.8 mph - N/A   Mostly Cloudy
3:14 AM 61.3 °F 59.9 °F 95% 29.72 in 10.0 mi WSW 6.9 mph - N/A   Mostly Cloudy
3:34 AM 61.7 °F 59.9 °F 94% 29.72 in 10.0 mi WSW 5.8 mph - N/A   Mostly Cloudy
3:54 AM 61.7 °F 60.3 °F 95% 29.72 in 10.0 mi SW 5.8 mph - N/A   Overcast
4:14 AM 61.7 °F 60.3 °F 95% 29.72 in 10.0 mi WSW 5.8 mph - N/A   Overcast
4:34 AM 61.9 °F 60.3 °F 94% 29.73 in 10.0 mi WSW 5.8 mph - N/A   Overcast
4:54 AM 61.7 °F 59.9 °F 94% 29.73 in 10.0 mi WSW 9.2 mph - N/A   Mostly Cloudy
5:14 AM 61.7 °F 59.9 °F 94% 29.73 in 10.0 mi WSW 8.1 mph - N/A   Mostly Cloudy
5:34 AM 61.7 °F 59.5 °F 93% 29.74 in 10.0 mi WSW 11.5 mph - N/A   Overcast
5:54 AM 61.7 °F 59.4 °F 92% 29.74 in 10.0 mi WSW 5.8 mph - N/A   Overcast
6:14 AM 61.2 °F 59.4 °F 94% 29.75 in 10.0 mi WSW 9.2 mph - N/A   Overcast
6:35 AM 61.3 °F 59.2 °F 93% 29.76 in 10.0 mi WSW 6.9 mph - N/A   Overcast
6:54 AM 61.7 °F 59.4 °F 92% 29.77 in 10.0 mi WSW 9.2 mph - N/A Rain Light Rain
7:14 AM 61.7 °F 59.5 °F 93% 29.79 in 10.0 mi West 8.1 mph - N/A   Overcast
7:35 AM 61.9 °F 59.4 °F 91% 29.79 in 10.0 mi West 10.4 mph - N/A   Overcast
7:54 AM 61.9 °F 59.4 °F 91% 29.79 in 10.0 mi West 12.7 mph 16.1 mph N/A   Overcast
8:14 AM 61.9 °F 59.2 °F 91% 29.80 in 10.0 mi West 11.5 mph 19.6 mph N/A   Overcast
8:35 AM 62.4 °F 59.2 °F 89% 29.81 in 10.0 mi West 13.8 mph - N/A   Mostly Cloudy
8:54 AM 62.1 °F 58.5 °F 88% 29.82 in 10.0 mi WNW 15.0 mph 18.4 mph N/A   Overcast
9:14 AM 60.4 °F 57.2 °F 89% 29.83 in 10.0 mi WNW 13.8 mph - N/A   Overcast
9:35 AM 58.3 °F 55.6 °F 91% 29.84 in 10.0 mi WNW 16.1 mph 21.9 mph N/A   Overcast
9:54 AM 56.1 °F 53.6 °F 91% 29.85 in 10.0 mi NW 11.5 mph 17.3 mph N/A   Overcast
10:14 AM 55.2 °F 52.7 °F 91% 29.86 in 10.0 mi WNW 12.7 mph 16.1 mph N/A   Overcast
10:34 AM 55.4 °F 52.3 °F 89% 29.86 in 10.0 mi NW 10.4 mph 19.6 mph N/A   Overcast
10:54 AM 56.3 °F 52.5 °F 87% 29.86 in 10.0 mi WNW 12.7 mph - N/A   Overcast
11:15 AM 57.7 °F 52.7 °F 83% 29.87 in 10.0 mi WNW 12.7 mph 18.4 mph N/A   Overcast
11:34 AM 57.4 °F 52.2 °F 83% 29.89 in 10.0 mi WNW 9.2 mph 16.1 mph N/A   Overcast
11:54 AM 58.1 °F 52.5 °F 82% 29.90 in 10.0 mi NW 11.5 mph - N/A   Overcast
12:14 PM 59.4 °F 53.1 °F 80% 29.90 in 10.0 mi West 12.7 mph 18.4 mph N/A   Overcast
12:34 PM 59.2 °F 53.1 °F 80% 29.90 in 10.0 mi NW 9.2 mph 19.6 mph N/A   Overcast
12:55 PM 59.2 °F 52.0 °F 77% 29.91 in 10.0 mi WNW 9.2 mph 18.4 mph N/A   Overcast
1:14 PM 60.1 °F 52.9 °F 77% 29.91 in 10.0 mi WNW 13.8 mph 18.4 mph N/A   Overcast
1:34 PM 59.9 °F 52.5 °F 77% 29.92 in 10.0 mi NW 10.4 mph 18.4 mph N/A   Overcast
1:55 PM 59.7 °F 52.3 °F 77% 29.93 in 10.0 mi NW 11.5 mph 19.6 mph N/A   Mostly Cloudy
2:14 PM 59.4 °F 51.4 °F 75% 29.93 in 10.0 mi WNW 13.8 mph 20.7 mph N/A   Mostly Cloudy
2:34 PM 58.3 °F 50.4 °F 75% 29.94 in 10.0 mi NW 10.4 mph 16.1 mph N/A   Overcast
2:55 PM 60.3 °F 51.6 °F 73% 29.94 in 10.0 mi WNW 15.0 mph 21.9 mph N/A   Overcast
3:14 PM 59.4 °F 51.1 °F 74% 29.94 in 10.0 mi WNW 12.7 mph 23.0 mph N/A   Overcast
3:34 PM 59.5 °F 51.1 °F 74% 29.95 in 10.0 mi WNW 10.4 mph 16.1 mph N/A   Overcast
3:54 PM 59.4 °F 51.3 °F 75% 29.96 in 10.0 mi WNW 9.2 mph 17.3 mph N/A   Overcast
4:14 PM 59.4 °F 51.1 °F 74% 29.96 in 10.0 mi West 11.5 mph 19.6 mph N/A   Overcast
4:34 PM 58.1 °F 49.6 °F 73% 29.96 in 10.0 mi WNW 13.8 mph 20.7 mph N/A   Overcast
4:54 PM 57.0 °F 49.5 °F 76% 29.97 in 10.0 mi NW 10.4 mph - N/A   Mostly Cloudy
5:14 PM 59.0 °F 48.9 °F 69% 29.96 in 10.0 mi WNW 16.1 mph 21.9 mph N/A   Scattered Clouds
5:34 PM 58.1 °F 48.6 °F 71% 29.96 in 10.0 mi WNW 11.5 mph 16.1 mph N/A   Scattered Clouds
5:54 PM 58.1 °F 48.2 °F 70% 29.96 in 10.0 mi NW 11.5 mph 19.6 mph N/A   Clear
6:14 PM 57.4 °F 47.7 °F 70% 29.97 in 10.0 mi WNW 12.7 mph - N/A   Clear
6:34 PM 56.3 °F 46.6 °F 70% 29.97 in 10.0 mi NW 9.2 mph 16.1 mph N/A   Clear
6:54 PM 55.6 °F 45.9 °F 70% 29.97 in 10.0 mi WNW 15.0 mph 19.6 mph N/A   Clear
7:15 PM 54.7 °F 45.5 °F 71% 29.97 in 10.0 mi WNW 15.0 mph - N/A   Clear
7:34 PM 54.1 °F 45.0 °F 71% 29.97 in 10.0 mi WNW 13.8 mph - N/A   Clear
7:54 PM 53.6 °F 45.1 °F 73% 29.98 in 10.0 mi NW 10.4 mph - N/A   Clear
8:15 PM 52.7 °F 44.1 °F 72% 29.98 in 10.0 mi NW 10.4 mph - N/A   Clear
8:34 PM 51.8 °F 43.7 °F 74% 29.98 in 10.0 mi WNW 11.5 mph - N/A   Clear
8:54 PM 50.0 °F 42.8 °F 76% 29.99 in 10.0 mi WNW 8.1 mph - N/A   Clear
9:15 PM 48.9 °F 42.4 °F 78% 29.99 in 10.0 mi NW 5.8 mph - N/A   Clear
9:34 PM 48.2 °F 42.6 °F 81% 29.99 in 10.0 mi NW 5.8 mph - N/A   Clear
9:54 PM 47.7 °F 43.0 °F 84% 29.99 in 10.0 mi NW 3.5 mph - N/A   Clear
10:14 PM 47.3 °F 43.3 °F 86% 30.00 in 10.0 mi NW 5.8 mph - N/A   Clear
10:34 PM 47.3 °F 43.7 °F 87% 30.00 in 10.0 mi NNW 4.6 mph - N/A   Clear
10:54 PM 47.1 °F 44.2 °F 90% 30.01 in 10.0 mi NW 3.5 mph - N/A   Scattered Clouds
11:14 PM 48.2 °F 45.1 °F 89% 30.02 in 10.0 mi NNW 4.6 mph - N/A   Overcast
11:35 PM 49.3 °F 46.0 °F 89% 30.02 in 10.0 mi Calm Calm - N/A   Overcast
11:54 PM 50.0 °F 46.0 °F 86% 30.02 in 10.0 mi NNW 3.5 mph - N/A   Overcast